[[{"header":{"parameterUnit":"m.s-1","parameterCategory":1,"la1":30.2991,"la2":30.254,"lo1":-89.0895,"lo2":-89.0444,"dy":0.0017,"dx":0.0017,"nx":28,"ny":28,"refTime":"2025-06-22T21:00:00:Z","depth":0,"parameterNumber":2,"parameterNumberName":"U-component_of_WINDS"},"data":[0,0,0,0,0,0,0,0,0,0,0,0,0,0,0,0,0,0,0,0,0,0,0,0,0,0,0,0,0,0,0,0,0,0,0,0,0,0,0,0,0,0,0,0,0,0,0,0,0,0,0,0,0,0,0,0,0,0,-2.8204,-2.8205,0,-2.8242,-2.8243,-2.8243,-2.8154,-2.8152,-2.8149,-2.8146,-2.8183,-2.8187,-2.819,0,0,0,0,0,0,0,0,0,0,0,0,0,-2.8054,-2.8057,-2.8204,-2.8205,-2.8205,-2.8242,-2.8243,-2.8243,-2.8155,-2.8151,-2.8148,-2.8145,-2.8182,-2.8186,-2.8191,0,0,0,0,0,0,0,0,0,0,0,0,0,-2.8108,-2.8058,-2.8204,-2.8166,-2.8163,-2.8242,-2.8243,-2.8243,-2.8156,-2.8151,-2.8147,-2.8143,-2.8181,-2.8186,-2.8191,-2.8309,0,0,-2.8208,-2.821,0,0,0,0,0,0,0,0,-2.8105,-2.8114,-2.8171,-2.8169,-2.8165,-2.8189,-2.8203,-2.8265,-2.8157,-2.8158,-2.8146,-2.8141,-2.8189,-2.8193,-2.8209,-2.8311,-2.8312,-2.8208,-2.8212,-2.8214,-2.8215,0,0,0,0,0,0,0,-2.8102,-2.8112,-2.8219,-2.8172,-2.8168,-2.8146,-2.8149,-2.8214,-2.8197,-2.8158,-2.8151,-2.8157,-2.8186,-2.8204,-2.821,-2.8313,-2.8208,-2.8213,-2.8216,-2.8218,-2.8512,-2.8517,0,0,0,0,0,0,-2.8103,-2.8109,-2.8218,-2.822,-2.8124,-2.8152,-2.8156,-2.8186,-2.8196,-2.8193,-2.8161,-2.8153,-2.8197,-2.8203,-2.8211,-2.8349,-2.8214,-2.8219,-2.8222,-2.8508,-2.8513,-2.8518,0,0,0,0,0,0,-2.81,-2.8114,-2.8216,-2.8163,-2.8175,-2.8159,-2.8194,-2.8189,-2.8207,-2.8198,-2.8194,-2.8183,-2.8194,-2.8203,-2.8285,-2.8349,-2.8221,-2.8226,-2.8503,-2.851,-2.8516,-2.8626,0,0,0,0,0,0,-2.8096,-2.8113,-2.8158,-2.8165,-2.8178,-2.8291,-2.8198,-2.8193,-2.8217,-2.8207,-2.8218,-2.8215,-2.8191,-2.8278,-2.8291,-2.8354,-2.8231,-2.8497,-2.8506,-2.8514,-2.8617,-2.8636,-2.8653,0,0,0,0,0,-2.8091,-2.8188,-2.8161,-2.8175,-2.8234,-2.8295,-2.8302,-2.8274,-2.8222,-2.8267,-2.8261,-2.8215,-2.834,-2.8287,-2.8301,-2.8367,-2.8493,-2.8503,-2.8513,-2.8609,-2.8632,-2.8652,0,0,0,0,0,0,-2.8188,-2.8188,-2.8158,-2.826,-2.8278,-2.828,-2.8336,-2.8299,-2.8333,-2.8322,-2.8284,-2.8287,-2.8377,-2.838,-2.8321,-2.8481,-2.8407,-2.8421,-2.8476,-2.8498,-2.8515,-2.8512,-2.8235,0,0,0,0,0,-2.8222,-2.8272,-2.8269,-2.8359,-2.837,-2.8352,-2.8377,-2.8353,-2.8371,-2.8378,-2.8378,-2.8396,-2.8439,-2.8469,-2.8508,-2.8617,-2.8618,-2.8669,-2.8687,-2.8702,-2.8714,-2.8771,-2.8794,-2.8552,-2.8552,-2.8552,0,0,-2.8291,-2.8297,-2.8331,-2.8378,-2.839,-2.8442,-2.8359,-2.8418,-2.8456,-2.8387,-2.8464,-2.8466,-2.8483,-2.8579,-2.8622,-2.8585,-2.8781,-2.8715,-2.8727,-2.8731,-2.8784,-2.8807,-2.8827,-2.8559,-2.8558,-2.8557,0,0,-2.8444,-2.8454,-2.8529,-2.8543,-2.8561,-2.8549,-2.8567,-2.8575,-2.8573,-2.8651,-2.8599,-2.8644,-2.872,-2.8734,-2.8752,-2.8911,-2.8869,-2.8924,-2.9017,-2.9073,-2.9093,-2.9109,-2.9165,-2.9186,-2.8936,-2.8937,-2.8937,0,-2.8527,-2.8605,-2.8573,-2.8636,-2.8658,-2.8598,-2.8674,-2.8688,-2.8719,-2.8735,-2.8693,-2.8787,-2.8795,-2.8893,-2.8932,-2.8948,-2.8967,-2.8923,-2.9092,-2.9109,-2.9124,-2.9177,-2.9198,-2.8943,-2.8942,-2.8942,-2.8941,0,-2.8706,-2.8761,-2.8819,-2.8851,-2.888,-2.8949,-2.8927,-2.896,-2.8934,-2.8925,-2.9005,-2.9012,-2.9052,-2.9074,-2.9048,-2.9169,-2.9145,-2.9099,-2.9024,-2.9154,-2.9203,-2.9223,-2.8953,-2.895,-2.8948,-2.8947,0,0,-2.892,-2.8934,-2.8956,-2.8969,-2.8986,-2.9027,-2.9093,-2.9133,-2.9161,-2.9184,-2.9239,-2.9304,-2.9261,-2.9281,-2.9257,-2.9307,-2.9431,-2.9254,-2.9254,-2.9286,-2.9564,-2.9598,-2.9622,-2.9404,-2.9408,-2.9411,-2.9562,0,-2.9071,-2.9185,-2.9159,-2.9271,-2.9321,-2.9265,-2.9323,-2.9339,-2.9333,-2.9374,-2.9367,-2.9414,-2.9354,-2.9365,-2.9412,-2.9406,-2.9486,-2.9395,-2.9454,-2.9456,-2.945,-2.9648,-2.9685,-2.9827,-2.9581,-2.9584,-2.9587,0,-2.9262,-2.9293,-2.9411,-2.9419,-2.9439,-2.9491,-2.9525,-2.9565,-2.9582,-2.9574,-2.9597,-2.9563,-2.9628,-2.9553,-2.9642,-2.958,-2.9602,-2.9603,-2.9608,-2.9612,-2.9529,-2.9657,-2.9871,-2.9893,-2.9617,-2.9614,-2.9612,0,-2.9406,-2.9477,-2.9557,-2.957,-2.9582,-2.962,-2.9626,-2.9639,-2.9664,-2.9694,-2.971,-2.9746,-2.9766,-2.9795,-2.9772,-2.972,-2.9864,-2.9787,-2.9859,-2.9859,-2.9891,-2.9889,-3.0112,-2.9907,-2.9907,-2.9906,-2.9906,0,-2.9576,-2.9651,-2.9621,-2.9671,-2.9752,-2.972,-2.9801,-2.9801,-2.9813,-2.9861,-2.9815,-2.986,-2.9827,-2.987,-2.9852,-2.9928,-2.9937,-2.9932,-2.9926,-2.9936,-2.9937,-2.9949,-2.9939,-2.9912,-2.9911,-2.9909,-2.9908,0,-2.9751,-2.9734,-2.9817,-2.9822,-2.9825,-2.9884,-2.9888,-2.9933,-2.9924,-2.9985,-2.9997,-2.9982,-3.003,-3.001,-3.006,-3.0048,-3.0145,-3.0127,-3.014,-3.0135,-3.0207,-3.02,-3.0445,-3.0476,-3.0252,-3.0254,-3.0256,0,-2.986,-2.9916,-2.9927,-2.9956,-2.9966,-3.0013,-3.0038,-3.0009,-3.0038,-3.0061,-3.0104,-3.0147,-3.0181,-3.026,-3.0253,-3.0291,-3.0273,-3.0356,-3.0278,-3.0286,-3.0273,-3.027,-3.0275,-3.0372,-3.0374,-3.0376,-3.0378,0,-3.0056,-3.0045,-3.0085,-3.0121,-3.0153,-3.0181,-3.0204,-3.023,-3.0202,-3.0236,-3.0285,-3.0311,-3.0362,-3.0406,-3.044,-3.0446,-3.0408,-3.0403,-3.0421,-3.0431,-3.0436,-3.0434,-3.0182,-3.0397,-3.0395,-3.0394,-3.0393,-3.0392,-3.0201,-3.0248,-3.0263,-3.0308,-3.0322,-3.0345,-3.0388,-3.0384,-3.0424,-3.0464,-3.0445,-3.0501,-3.0516,-3.0557,-3.0569,-3.0612,-3.0579,-3.0606,-3.0612,-3.0619,-3.0628,-3.043,-3.0618,-3.0617,-3.0617,-3.0616,-3.0616,0,-3.0394,-3.0401,-3.0443,-3.0477,-3.0512,-3.0474,-3.0498,-3.053,-3.058,-3.0597,-3.0631,-3.0687,-3.0729,-3.0727,-3.0766,-3.0801,-3.0784,-3.0812,-3.0808,-3.081,-3.0656,-3.0636,-3.0825,-3.0824,-3.0824,-3.0824,-3.0824,-3.0824,-3.0499,-3.0576,-3.0567,-3.0651,-3.0657,-3.0712,-3.0729,-3.0749,-3.0763,-3.0828,-3.0863,-3.0861,-3.087,-3.0909,-3.0946,-3.0944,-3.096,-3.0995,-3.0986,-3.0842,-3.0821,-3.0801,-3.0782,-3.0999,-3.0999,-3.1137,-3.1138,-3.1139]},{"header":{"parameterUnit":"m.s-1","parameterCategory":1,"la1":30.2991,"la2":30.254,"lo1":-89.0895,"lo2":-89.0444,"dy":0.0017,"dx":0.0017,"nx":28,"ny":28,"refTime":"2025-06-22T21:00:00:Z","depth":0,"parameterNumber":3,"parameterNumberName":"V-component_of_WINDS"},"data":[0,0,0,0,0,0,0,0,0,0,0,0,0,0,0,0,0,0,0,0,0,0,0,0,0,0,0,0,0,0,0,0,0,0,0,0,0,0,0,0,0,0,0,0,0,0,0,0,0,0,0,0,0,0,0,0,0,0,-1.3269,-1.327,0,-1.328,-1.328,-1.328,-1.3297,-1.3298,-1.3298,-1.3298,-1.3307,-1.3307,-1.3307,0,0,0,0,0,0,0,0,0,0,0,0,0,-1.3263,-1.3263,-1.3269,-1.327,-1.327,-1.328,-1.328,-1.328,-1.3297,-1.3298,-1.3298,-1.3298,-1.3307,-1.3307,-1.3307,0,0,0,0,0,0,0,0,0,0,0,0,0,-1.3269,-1.3263,-1.3269,-1.328,-1.3281,-1.328,-1.328,-1.328,-1.3297,-1.3298,-1.3298,-1.3299,-1.3307,-1.3307,-1.3307,-1.3297,0,0,-1.3307,-1.3307,0,0,0,0,0,0,0,0,-1.3268,-1.3269,-1.3278,-1.3279,-1.328,-1.3288,-1.3281,-1.3286,-1.3297,-1.3291,-1.3298,-1.3299,-1.33,-1.3301,-1.3302,-1.3297,-1.3297,-1.3307,-1.3307,-1.3307,-1.3307,0,0,0,0,0,0,0,-1.3268,-1.3269,-1.3274,-1.3278,-1.3279,-1.3283,-1.3284,-1.3282,-1.3293,-1.3291,-1.3293,-1.3294,-1.3301,-1.3302,-1.3302,-1.3298,-1.3307,-1.3307,-1.3307,-1.3307,-1.3284,-1.3283,0,0,0,0,0,0,-1.3266,-1.3268,-1.3273,-1.3274,-1.3275,-1.3283,-1.3284,-1.3285,-1.3293,-1.3294,-1.3293,-1.3295,-1.3302,-1.3302,-1.3302,-1.329,-1.3307,-1.3307,-1.3307,-1.3284,-1.3284,-1.3283,0,0,0,0,0,0,-1.3266,-1.3267,-1.3273,-1.3271,-1.3272,-1.3282,-1.3283,-1.3285,-1.3285,-1.3294,-1.3296,-1.3292,-1.3302,-1.3302,-1.3298,-1.329,-1.3307,-1.3306,-1.3285,-1.3284,-1.3283,-1.3265,0,0,0,0,0,0,-1.3266,-1.3266,-1.3263,-1.3271,-1.3272,-1.3269,-1.3282,-1.3285,-1.3285,-1.3287,-1.3294,-1.3295,-1.3302,-1.3298,-1.3298,-1.329,-1.3306,-1.3286,-1.3285,-1.3284,-1.3266,-1.3263,-1.3261,0,0,0,0,0,-1.3266,-1.3257,-1.3263,-1.3263,-1.3268,-1.3268,-1.3269,-1.3278,-1.3285,-1.3281,-1.3286,-1.3295,-1.3291,-1.3297,-1.3297,-1.329,-1.3286,-1.3285,-1.3284,-1.3267,-1.3264,-1.3261,0,0,0,0,0,0,-1.3248,-1.3259,-1.3265,-1.3259,-1.3263,-1.3271,-1.3267,-1.3274,-1.3275,-1.3277,-1.3288,-1.3289,-1.3282,-1.3286,-1.3292,-1.3279,-1.329,-1.3289,-1.3277,-1.3274,-1.3272,-1.3271,-1.3306,0,0,0,0,0,-1.3243,-1.3243,-1.3252,-1.3246,-1.3247,-1.3257,-1.3257,-1.3263,-1.3267,-1.3269,-1.3274,-1.3277,-1.3276,-1.3276,-1.3276,-1.3267,-1.3268,-1.3262,-1.3259,-1.3257,-1.3255,-1.325,-1.3247,-1.3279,-1.3279,-1.3279,0,0,-1.3234,-1.3239,-1.3238,-1.3242,-1.3246,-1.3244,-1.3258,-1.3256,-1.3254,-1.3268,-1.3264,-1.3268,-1.3272,-1.3265,-1.3262,-1.3267,-1.3247,-1.3256,-1.3254,-1.3253,-1.3248,-1.3245,-1.3242,-1.3278,-1.3278,-1.3278,0,0,-1.3215,-1.322,-1.3215,-1.3218,-1.3223,-1.323,-1.3228,-1.3236,-1.3239,-1.3235,-1.3245,-1.3243,-1.3242,-1.3244,-1.3245,-1.3227,-1.3234,-1.3227,-1.3213,-1.3208,-1.3205,-1.3203,-1.3195,-1.3192,-1.3225,-1.3225,-1.3225,0,-1.3202,-1.3201,-1.3211,-1.3208,-1.3209,-1.3222,-1.3217,-1.3219,-1.3224,-1.3224,-1.323,-1.3229,-1.3233,-1.3225,-1.3221,-1.3222,-1.322,-1.3226,-1.3205,-1.3203,-1.3201,-1.3193,-1.3191,-1.3224,-1.3224,-1.3225,-1.3225,0,-1.3184,-1.3183,-1.3178,-1.3182,-1.3183,-1.3179,-1.3188,-1.3187,-1.3194,-1.3199,-1.3194,-1.3199,-1.32,-1.3199,-1.3205,-1.3192,-1.3195,-1.3203,-1.3214,-1.3196,-1.319,-1.3187,-1.3223,-1.3223,-1.3223,-1.3224,0,0,-1.3154,-1.3164,-1.3162,-1.3164,-1.3171,-1.3169,-1.3165,-1.3167,-1.3165,-1.3168,-1.3164,-1.3163,-1.317,-1.3171,-1.3177,-1.3173,-1.3156,-1.3181,-1.3181,-1.3175,-1.3141,-1.3134,-1.3131,-1.3161,-1.3161,-1.3161,-1.314,0,-1.3136,-1.313,-1.3139,-1.3131,-1.3129,-1.3141,-1.3138,-1.3141,-1.3146,-1.3144,-1.3149,-1.3148,-1.3158,-1.3158,-1.3154,-1.3159,-1.3149,-1.3161,-1.3157,-1.3156,-1.3154,-1.3127,-1.312,-1.3101,-1.3138,-1.3137,-1.3137,0,-1.3114,-1.3116,-1.3107,-1.3114,-1.3113,-1.311,-1.3111,-1.311,-1.3113,-1.3117,-1.3118,-1.3126,-1.3121,-1.3132,-1.3126,-1.3133,-1.3132,-1.3134,-1.3134,-1.3133,-1.3145,-1.3124,-1.3095,-1.3091,-1.3133,-1.3133,-1.3134,0,-1.3092,-1.3092,-1.3087,-1.3088,-1.3095,-1.3092,-1.3095,-1.3099,-1.3099,-1.31,-1.31,-1.31,-1.31,-1.31,-1.3107,-1.3115,-1.3099,-1.3111,-1.3101,-1.3101,-1.3096,-1.3096,-1.3065,-1.3098,-1.3098,-1.3098,-1.3098,0,-1.307,-1.3064,-1.3076,-1.3073,-1.3066,-1.3077,-1.3069,-1.3073,-1.3077,-1.3074,-1.3085,-1.3081,-1.3092,-1.309,-1.3095,-1.3088,-1.3088,-1.309,-1.3092,-1.3089,-1.3088,-1.3087,-1.3088,-1.3097,-1.3097,-1.3097,-1.3097,0,-1.3043,-1.3052,-1.3046,-1.3054,-1.3056,-1.305,-1.3056,-1.3053,-1.3058,-1.3054,-1.3054,-1.3062,-1.306,-1.3067,-1.3066,-1.307,-1.3059,-1.3064,-1.3058,-1.3059,-1.3048,-1.3048,-1.3013,-1.3009,-1.3046,-1.3046,-1.3045,0,-1.3028,-1.3024,-1.3031,-1.303,-1.3032,-1.303,-1.303,-1.304,-1.3039,-1.3042,-1.3038,-1.3037,-1.3036,-1.3032,-1.3037,-1.3036,-1.3039,-1.3027,-1.3039,-1.3036,-1.3038,-1.3037,-1.3036,-1.3025,-1.3024,-1.3024,-1.3023,0,-1.3,-1.3004,-1.3004,-1.3004,-1.3004,-1.3005,-1.3007,-1.3005,-1.3016,-1.3014,-1.3012,-1.3011,-1.301,-1.3008,-1.3008,-1.301,-1.3018,-1.302,-1.3017,-1.3013,-1.301,-1.301,-1.305,-1.302,-1.3021,-1.3021,-1.3021,-1.3021,-1.2978,-1.2974,-1.2978,-1.2977,-1.2979,-1.298,-1.2977,-1.2982,-1.2981,-1.2981,-1.2987,-1.2983,-1.2986,-1.2987,-1.2988,-1.2985,-1.299,-1.2987,-1.2986,-1.2984,-1.2982,-1.3011,-1.2985,-1.2985,-1.2985,-1.2985,-1.2985,0,-1.2949,-1.2952,-1.2951,-1.2953,-1.2952,-1.296,-1.2962,-1.296,-1.2957,-1.296,-1.2959,-1.2956,-1.2954,-1.2959,-1.2957,-1.2954,-1.2957,-1.2953,-1.2952,-1.2952,-1.2978,-1.298,-1.295,-1.295,-1.295,-1.295,-1.295,-1.295,-1.2934,-1.2927,-1.2932,-1.2927,-1.293,-1.2927,-1.2927,-1.2928,-1.2929,-1.2926,-1.2924,-1.2928,-1.2931,-1.293,-1.2928,-1.2929,-1.2928,-1.2922,-1.2924,-1.2947,-1.2951,-1.2954,-1.2956,-1.2922,-1.2922,-1.2899,-1.2899,-1.2899]}]]